User: anonymous   Login
Location: Unspecified
(0.0000°N, 0.0000°E)
Time: 14:44:23
(UTC+00:00)
Language:

XMM - Orbit

View from above orbital plane
View from above orbital plane
View from above satellite
View from above satellite

Ground track
Ground track

The orbit data is extracted from the following two-line orbital elements,

1 25989U 99066A   18321.18919363 -.00000339 +00000-0 +00000-0 0  9994
2 25989 070.6141 340.2950 7850225 095.6167 359.9137 00.50137156009127
Epoch (UTC): 17 November 2018 04:32:26
Eccentricity: 0.7850225
inclination: 70.6141°
perigee height: 8010 km
apogee height: 113094 km
right ascension of ascending node: 340.2950°
argument of perigee: 95.6167°
revolutions per day: 0.50137156
mean anomaly at epoch: 359.9137°
orbit number at epoch: 912

The dashed part of the orbit path shows where the satellite is in the earth's shadow,  

DLR